User: anonymous   Login
Location: Unspecified
(0.0000°N, 0.0000°E)
Time: 06:44:01
(UTC+00:00)
Language:

MERIDIAN 7 - Orbit

View from above orbital plane
View from above orbital plane
View from above satellite
View from above satellite

Ground track
Ground track

The orbit data is extracted from the following two-line orbital elements,

1 40296U 14069A   20223.75276255  .00000127  00000-0  00000+0 0  9998
2 40296  63.0196 115.9500 6923171 273.3097  16.6355  2.00622727 42368
Epoch (UTC): 10 August 2020 18:03:58
Eccentricity: 0.6923171
inclination: 63.0196°
perigee height: 1792 km
apogee height: 38561 km
right ascension of ascending node: 115.9500°
argument of perigee: 273.3097°
revolutions per day: 2.00622727
mean anomaly at epoch: 16.6355°
orbit number at epoch: 4236

The dashed part of the orbit path shows where the satellite is in the earth's shadow,  

DLR